Weather History for PAEG - March, 2014

Change the Weather History Date:

Tuesday, March 18, 2014

  Actual Average (PABN) Record (PABN)
Temperature  
Mean Temperature 12 °F -  
Max Temperature 30 °F 20 °F 39 °F (1997)
Min Temperature -7 °F 6 °F -11 °F (2007)
Degree Days  
Heating Degree Days 54    
Moisture  
Dew Point 0 °F    
Average Humidity 64    
Maximum Humidity 83    
Minimum Humidity 36    
Precipitation  
Precipitation 0.00 in - - ()
Sea Level Pressure  
Sea Level Pressure 29.85 in    
Wind  
Wind Speed 1 mph (SW)    
Max Wind Speed 4 mph    
Max Gust Speed -    
Visibility 10 miles    
Events      
Averages and records for this station are not official NWS values.
T = Trace of Precipitation, MM = Missing Value Source: NWS Daily Summary

Daily Weather History Graph

Daily Weather History Graph

Search for Another Location

Airport or City:

Trip Planner

Search our weather history database for the weather conditions in past years. The results will help you decide how hot, cold, wet, or windy it might be!

Date:

Astronomy

Mar. 18, 2014 Rise Set
Actual Time 7:31 AM AKDT 7:35 PM AKDT
Civil Twilight 6:43 AM AKDT 8:24 PM AKDT
Nautical Twilight 5:43 AM AKDT 9:23 PM AKDT
Astronomical Twilight 4:37 AM AKDT 10:31 PM AKDT
Moon 11:04 PM AKDT (3/18) 7:37 AM AKDT (3/18)
Length of Visible Light 13h 41m
Length of Day
12h 03m
Waning Gibbous, 95% of the Moon is Illuminated
Mar 18
Waning Gibbous
Mar 23
Last Quarter
Mar 30
New
Apr 7
First Quarter
Apr 14
Full

Hourly Weather History & Observations

Time (AKDT) Temp. Windchill Dew Point Humidity Pressure Visibility Wind Dir Wind Speed Gust Speed Precip Events Conditions
12:53 AM 3.9 °F -3.4 °F -2.0 °F 76% 29.73 in 10.0 mi South 3.5 mph - N/A   Overcast
1:53 AM 3.9 °F - -2.0 °F 76% 29.74 in 10.0 mi Calm Calm - N/A   Overcast
2:53 AM 1.9 °F - -2.9 °F 80% 29.75 in 10.0 mi Calm Calm - N/A   Overcast
3:53 AM 1.0 °F - -4.0 °F 79% 29.75 in 10.0 mi Calm Calm - N/A   Clear
4:53 AM -2.9 °F - -7.1 °F 82% 29.77 in 10.0 mi Calm Calm - N/A   Clear
5:53 AM -5.1 °F - -9.0 °F 83% 29.78 in 10.0 mi Calm Calm - N/A   Clear
6:53 AM -5.1 °F - -9.0 °F 83% 29.80 in 10.0 mi Calm Calm - N/A   Clear
7:53 AM -7.1 °F -15.9 °F -11.9 °F 79% 29.82 in 10.0 mi SW 3.5 mph - N/A   Clear
8:53 AM -0.9 °F - -7.1 °F 75% 29.84 in 10.0 mi Calm Calm - N/A   Clear
9:53 AM 9.0 °F - 1.0 °F 70% 29.84 in 10.0 mi Calm Calm - N/A   Scattered Clouds
10:53 AM 12.0 °F - 1.9 °F 64% 29.85 in 10.0 mi Calm Calm - N/A   Overcast
11:53 AM 15.1 °F - 1.9 °F 56% 29.86 in 10.0 mi Calm Calm - N/A   Overcast
12:53 PM 19.9 °F - 3.9 °F 50% 29.86 in 10.0 mi Calm Calm - N/A   Overcast
1:53 PM 23.0 °F - 5.0 °F 46% 29.86 in 10.0 mi Calm Calm - N/A   Mostly Cloudy
2:53 PM 26.1 °F - 6.1 °F 43% 29.86 in 10.0 mi Calm Calm - N/A   Mostly Cloudy
3:53 PM 28.0 °F - 6.1 °F 39% 29.86 in 10.0 mi Calm Calm - N/A   Overcast
4:53 PM 28.9 °F - 6.1 °F 38% 29.87 in 10.0 mi Calm Calm - N/A   Overcast
5:53 PM 30.0 °F - 6.1 °F 36% 29.88 in 10.0 mi Calm Calm - N/A   Scattered Clouds
6:53 PM 26.1 °F - 6.1 °F 43% 29.90 in 10.0 mi Calm Calm - N/A   Clear
7:53 PM 19.0 °F 13.9 °F 5.0 °F 54% 29.93 in 10.0 mi South 3.5 mph - N/A   Overcast
8:53 PM 12.0 °F - 3.0 °F 67% 29.95 in 10.0 mi Calm Calm - N/A   Overcast
9:53 PM 10.0 °F - 1.9 °F 70% 29.96 in 10.0 mi Calm Calm - N/A   Mostly Cloudy
10:53 PM 12.0 °F 5.9 °F 3.9 °F 70% 29.98 in 10.0 mi WNW 3.5 mph - N/A   Mostly Cloudy
11:53 PM 14.0 °F 8.2 °F 6.1 °F 71% 30.00 in 10.0 mi Variable 3.5 mph - N/A   Scattered Clouds